2021-002K (47318 NORAD) Tracking and Keplerian Element Data
This shows tracking and keplerian element data for the satellite.
Feedback or suggestion? Click here.
Element | Value |
Catalog | 47318 |
Name | 2021-002K |
Epoch Orbit | 1271 |
Epoch Day | 101.76961076 |
Epoch Year | 2021 |
RAAN | 181.1599 |
Inclination | 60.681 |
Eccentricity | 0.0030606 |
Argument of Perigee | 5.8942 |
Mean Anonmoly | 354.2498 |
Mean Motion | 15.20604753 |
Decay Rate | 9.67E-06 |
L1 | 1 47318U 21002K 21101.76961076 .00000967 00000-0 55648-4 0 9999 |
L2 | 2 47318 60.6810 181.1599 0030606 5.8942 354.2498 15.20604753 12712 |
Live tracking and technical data element details for 2021-002K (NORAD 47318). 2021-002K can be tracked NOW for your location showing map with azimuth and elevation plus other details from your city location.
Track the satellite on the map from your city or location and see movement details for azimuth, elevation, latitude, longitude, range, height, and movement on the map or in text.
IsCatalogInMostPopularTable: catalog: 47318, numindb: 19
Update: records affected: 1
GetName: 47318 2021-002K
Hit Count: updated at: Tue, 13 Apr 2021 04:34:56 GMT